CZ-6A DEB, 58434

Orbit data source: Space-Track

CZ-6A DEB, 58434 is space debris in SSO originally from a launch on Fri, 11 Nov 2022 UTC launched from the Taiyaun Space Center, China (TSC). Debris objects in space refer to the collection of defunct objects orbiting the Earth. Examples of debris include non-operational satellites, rocket bodies, and fragments generated from explosions, collisions, or faulty payload assembly.

Loading next visibility...
Identifier
58434, 2022-151AJC
Orbit
SSO
Country
Flag of CNCN / PRC
Related business
Manufacturer
SAST
Mission
Spacecraft
Bus & Motor
Unknown
Mass
Unknown
Launch date (UTC)
2022-11-11 (4 years ago)
Launch vehicle
Unknown
Launch site
Taiyaun Space Center, China (TSC)
Object type
Payload
Rocket body
Debris
Shape & HBR
Unknown shape, 0.1 m
Radar Cross Section
Small (<0.1 m²)

Expand to show TLE details & history
Last TLE update: 6 days ago

TLE from 6 days ago
0 CZ-6A DEB
1 58434U 22151AJC 26167.85047568  .00000168  00000-0  73642-4 0  9991
2 58434  98.7094 209.7950 0105726  59.9423 301.2196 14.32646526162626
Epoch: 2026-06-16T20:24Z
TLE epoch observation values (Epoch: 2026-06-16T20:24:41.098Z)
Latitude
-0.00005°
Longitude
-1.49283°
Altitude
747.17 km
Speed
7.501 km/s
True Right ascension
13h 59m 10s
True Declination
0° 00' 00"
Sunlit
Object was in full shadow at epoch
Visualization orbit readout
Latitude
Unknown
Longitude
Unknown
Altitude
Unknown
Speed
Unknown
Apparent Right ascension
Unknown
Apparent Declination
Unknown
Sunlit
N/A
Visualization observer readout
Local Sidereal Time
21:51:55
Azimuth
Unknown
Elevation
Unknown
Doppler factor
Unknown
Orbital elements
Apogee altitude
855.72 km
Perigee altitude
704.359 km
Semi-major axis
7,158.176 km
Eccentricity
0.01057
Inclination
98.7094°
RAAN
209.795°
Arg. of periapsis
59.9423°
True anomaly
300.17643°
Mean anomaly
301.2196°
Eccentric anomaly
300.69872°
Mean motion
3.58377 °/min
Orbital period
100.45 mins
BSTAR
0.000073642
Loading maneuver chart data...
Computing Atmospheric mass density...
Loading historical data...
Loading historical data...
Loading historical data...
Loading historical data...
Loading historical data...
Loading historical data...
Loading historical data...

Documentation

Showing up to 5 results
|